CW0728 Weather Reports


time (UTC)temp
C
wind
direction
speed
KPH
gust
KPH
rain 1hr
cm
rain 24hr
cm
rain mn
cm
humidity
%
barometer
mb
20260508113041 6 250 0.0 1.6 0.00 0.00 0.00 61 1007.2
20260508111523 5 333 0.0 0.0 0.00 0.00 0.00 64 1007.1
20260508110105 3 329 0.0 0.0 0.00 0.00 0.00 69 1007.1
20260508104541 3 329 0.0 0.0 0.00 0.00 0.00 72 1007.1
20260508103028 3 329 0.0 0.0 0.00 0.00 0.00 73 1007.0
20260508101619 3 329 0.0 0.0 0.00 0.00 0.00 71 1006.7
20260508100033 3 329 0.0 0.0 0.00 0.00 0.00 69 1006.5
20260508094519 2 211 0.0 0.0 0.00 0.00 0.00 71 1006.4
20260508093006 1 316 0.0 0.0 0.00 0.00 0.00 74 1006.2
20260508091549 1 339 0.0 0.0 0.00 0.00 0.00 76 1006.1
20260508090027 1 332 0.0 0.0 0.00 0.03 0.00 77 1005.8
20260508084501 1 332 0.0 0.0 0.00 0.03 0.00 75 1005.6
20260508083048 2 332 0.0 0.0 0.00 0.03 0.00 74 1005.6
20260508081517 2 332 0.0 0.0 0.00 0.03 0.00 74 1005.6
20260508080055 2 332 0.0 0.0 0.00 0.03 0.00 72 1005.5
20260508074528 2 332 0.0 0.0 0.00 0.03 0.00 71 1005.2
20260508073016 3 332 0.0 0.0 0.00 0.03 0.00 68 1005.3
20260508071550 3 332 0.0 0.0 0.00 0.03 0.00 66 1005.2
20260508070022 3 332 0.0 0.0 0.00 0.03 0.00 65 1005.2
20260508064615 4 332 0.0 0.0 0.00 0.03 0.00 63 1005.2
20260508063035 4 331 0.0 0.0 0.00 0.03 0.00 62 1005.4
20260508061516 5 322 0.0 0.0 0.00 0.03 0.00 61 1005.5
20260508060047 5 323 0.0 0.0 0.00 0.03 0.00 62 1005.5
20260508054520 4 337 0.0 0.0 0.00 0.03 0.00 65 1005.7
20260508053056 5 342 0.0 0.0 0.00 0.03 0.00 65 1005.8
20260508051529 5 350 0.0 0.0 0.00 0.03 0.00 65 1006.0
20260508050020 5 350 0.0 0.0 0.00 0.08 0.00 65 1006.2
20260508044552 5 350 0.0 0.0 0.00 0.08 0.00 65 1006.1
20260508043025 6 350 0.0 0.0 0.00 0.08 0.00 62 1006.1
20260508041601 6 350 0.0 0.0 0.00 0.08 0.00 61 1006.1
20260508040039 6 350 0.0 0.0 0.00 0.10 0.08 59 1006.2
20260508034531 7 350 0.0 0.0 0.00 0.10 0.08 56 1006.1
20260508033007 7 320 0.0 0.0 0.00 0.10 0.08 56 1006.2
20260508031546 8 320 0.0 0.0 0.00 0.10 0.08 53 1006.1
20260508030020 8 320 0.0 0.0 0.00 0.10 0.08 50 1006.2
20260508024555 9 320 0.0 0.0 0.00 0.10 0.08 47 1006.1
20260508023042 10 320 0.0 0.0 0.00 0.10 0.08 47 1006.0
20260508021528 10 9 0.0 0.0 0.00 0.10 0.08 44 1005.8
20260508020058 10 50 0.0 0.0 0.00 0.13 0.08 43 1005.7
20260508014546 11 313 0.0 6.4 0.00 0.13 0.08 41 1005.3
20260508013012 11 66 0.0 3.2 0.00 0.13 0.08 41 1005.2
20260508011549 11 329 0.0 4.8 0.00 0.13 0.08 40 1005.0
20260508010027 11 329 0.0 4.8 0.00 0.13 0.08 40 1004.8
20260508004515 11 333 0.0 8.0 0.00 0.13 0.08 40 1004.6
20260508003058 12 319 0.0 1.6 0.00 0.13 0.08 42 1004.4
20260508001530 12 319 0.0 0.0 0.00 0.13 0.08 40 1004.0
20260508000003 13 319 0.0 3.2 0.00 0.13 0.08 38 1003.9
20260507234543 13 240 1.6 6.4 0.00 0.13 0.08 36 1003.7
20260507233031 13 285 0.0 6.4 0.00 0.13 0.08 35 1003.7
20260507231557 14 336 1.6 8.0 0.00 0.13 0.08 34 1003.6
20260507230035 14 273 1.6 22.5 0.00 0.18 0.08 33 1003.4
20260507224520 15 270 6.4 19.3 0.00 0.18 0.08 33 1003.0
20260507223009 15 257 6.4 19.3 0.00 0.18 0.08 32 1003.0
20260507221541 15 336 4.8 16.1 0.00 0.18 0.08 32 1002.8
20260507220028 16 184 4.8 17.7 0.00 0.33 0.08 31 1002.7
20260507214516 17 52 3.2 12.9 0.00 0.33 0.08 31 1002.8
20260507213056 17 236 4.8 22.5 0.00 0.33 0.08 30 1002.7
20260507211539 17 316 0.0 24.1 0.00 0.33 0.08 30 1002.6
20260507210011 17 237 4.8 20.9 0.00 0.41 0.08 30 1002.5
20260507204552 17 271 1.6 17.7 0.00 0.41 0.08 30 1002.4
20260507203030 17 239 3.2 16.1 0.00 0.41 0.08 31 1002.6
20260507201519 18 265 1.6 12.9 0.00 0.41 0.08 31 1002.5
20260507200103 18 313 3.2 14.5 0.00 0.51 0.08 31 1002.5
20260507194535 18 302 3.2 16.1 0.00 0.51 0.08 32 1002.5
20260507193005 18 302 3.2 17.7 0.00 0.51 0.08 30 1002.5
20260507191548 17 77 3.2 17.7 0.00 0.51 0.08 32 1002.6
20260507190016 17 248 12.9 24.1 0.00 0.51 0.08 31 1002.8
20260507184553 17 345 1.6 14.5 0.00 0.51 0.08 37 1002.7
20260507183039 16 271 6.4 22.5 0.00 0.51 0.08 38 1003.0
20260507181516 16 313 4.8 17.7 0.00 0.51 0.08 40 1002.9
20260507180054 16 327 4.8 19.3 0.00 0.51 0.08 41 1003.0
20260507174527 16 321 4.8 17.7 0.00 0.51 0.08 41 1003.1
20260507173004 15 265 8.0 20.9 0.00 0.51 0.08 42 1003.3
20260507171542 16 360 6.4 19.3 0.00 0.51 0.08 43 1003.4
20260507170019 16 331 1.6 17.7 0.00 0.51 0.08 46 1003.4
20260507164559 16 281 4.8 16.1 0.00 0.51 0.08 48 1003.6
20260507163044 15 309 4.8 22.5 0.00 0.51 0.08 48 1003.8
20260507161519 13 231 0.0 9.7 0.00 0.51 0.08 58 1003.7
20260507160107 13 198 1.6 11.3 0.00 0.51 0.08 68 1004.0
20260507154534 12 199 1.6 14.5 0.00 0.51 0.08 68 1004.2
20260507153011 13 238 1.6 8.0 0.00 0.51 0.08 66 1004.3
20260507151549 15 154 1.6 12.9 0.00 0.51 0.08 60 1004.4
20260507150022 15 234 3.2 17.7 0.00 0.51 0.08 49 1004.4
20260507144549 15 202 0.0 12.9 0.00 0.51 0.08 53 1004.4
20260507143036 15 237 0.0 4.8 0.00 0.51 0.08 61 1004.5
20260507141511 13 319 0.0 3.2 0.00 0.51 0.08 65 1004.6
20260507140101 13 161 0.0 4.8 0.00 0.51 0.08 66 1004.8
20260507134525 12 86 0.0 6.4 0.00 0.51 0.08 71 1005.0
20260507133007 11 288 0.0 11.3 0.00 0.51 0.08 74 1005.1
20260507131546 11 255 1.6 8.0 0.00 0.51 0.08 76 1005.2
20260507130016 10 43 0.0 0.0 0.00 0.51 0.08 80 1005.2
20260507124556 10 11 0.0 0.0 0.00 0.51 0.08 83 1005.3
20260507123031 10 335 0.0 9.7 0.00 0.51 0.08 83 1005.4
20260507121508 9 94 0.0 0.0 0.00 0.51 0.08 85 1005.4
20260507120045 8 319 0.0 0.0 0.00 0.51 0.08 87 1005.4
20260507114518 8 18 0.0 0.0 0.00 0.51 0.08 89 1005.5